Regional Weather Roundup
Issued by NWS Portland, ME

Home | Current Version | Previous Version | Text Only | Print | Product List | Glossary On
Versions: 1 2 3 4 5 6 7 8 9 10 11 12 13 14 15 16 17 18 19 20 21 22 23 24 25 26 27 28 29 30 31 32 33 34 35 36 37 38 39 40 41 42 43 44 45 46 47 48 49 50
000
ASUS41 KGYX 071310
RWRGYX
WEATHER ROUNDUP FOR MAINE AND NEW HAMPSHIRE
NATIONAL WEATHER SERVICE GRAY ME
900 AM EDT TUE JUL 07 2015

MEZ002-005-006-010-012-015-018-020-021-024-026-027-029-071400-
MAINE

CITY           SKY/WX    TMP DP  RH WIND       PRES   REMARKS
PORTLAND       PTSUNNY   71  65  81 S5        30.10S
SANFORD        PTSUNNY   73  63  68 SW8       30.11S
BAR HARBOR     SUNNY     66  64  94 CALM      30.12F
WISCASSET      MOSUNNY   70  64  81 SE5       30.11F
ROCKLAND       SUNNY     66  63  88 S5        30.10F
FRYEBURG       CLOUDY    68  63  84 CALM      30.09F
LEWISTONAUBURN CLOUDY    70  63  78 SE3       30.10F
AUGUSTA        CLOUDY    68  62  81 SE7       30.10F
WATERVILLE     SUNNY     70  63  78 S6        30.06F
BANGOR         SUNNY     69  62  78 S12       30.10F
GREENVILLE       N/A     69  61  75 VRB3      30.07F
MILLINOCKET    SUNNY     72  61  68 S6        30.08F
HOULTON        SUNNY     72  61  68 VRB6      30.06F
PRESQUE ISLE   SUNNY     70  61  73 E5        30.05S
FRENCHVILLE    CLOUDY    67  61  81 S5        30.05S
CARIBOU        PTSUNNY   70  62  76 S5        30.05S
$$

NHZ002-005-008-009-011-012-014-071400-
NEW HAMPSHIRE

CITY           SKY/WX    TMP DP  RH WIND       PRES   REMARKS
PORTSMOUTH     PTSUNNY   75  66  74 S5        30.08F
ROCHESTER      PTSUNNY   72  64  76 CALM      30.09F
NASHUA         PTSUNNY   74  67  78 VRB5      30.11R
MANCHESTER     PTSUNNY   74  65  73 S8        30.08F
CONCORD        CLOUDY    74  65  73 VRB5      30.09F
LACONIA        CLOUDY    70  64  83 CALM      30.09S
PLYMOUTH       CLOUDY    64  63  96 CALM      30.10S
BERLIN         CLOUDY    64  58  80 CALM      30.09F
WHITEFIELD     CLOUDY    66  59  78 CALM      30.08F
JAFFREY        CLOUDY    70  65  84 SW5       30.12S
KEENE          CLOUDY    72  63  73 S7        30.11R
LEBANON        CLOUDY    70  63  78 CALM      30.08R
MT WASHINGTON  NOT AVBL
$$

VTZ005-007-008-071400-
VERMONT

CITY           SKY/WX    TMP DP  RH WIND       PRES   REMARKS
ST JOHNSBURY     N/A     68  60  75 MISG      30.05F
MONTPELIER     CLOUDY    70  63  78 SE8       30.10F
BURLINGTON     PTSUNNY   77  65  66 S18G31    29.99F
$$

MAZ007-012-024-CTZ003-RIZ002-NYZ038-NYZ072-071400-
SOUTHERN NEW ENGLAND AND NY

CITY           SKY/WX    TMP DP  RH WIND       PRES   REMARKS
BOSTON         PTSUNNY   72  68  87 SE5       30.10F
WORCESTER      CLOUDY    70  66  87 SE6       30.13S
NANTUCKET      SUNNY     70  63  78 SE12      30.13F
PROVIDENCE     CLOUDY    73  70  90 S8        30.11S
HARTFORD       CLOUDY    72  68  87 S6        30.08S
ALBANY         CLOUDY    77  68  73 S9        30.03S
NEW YORK CITY  PTSUNNY   79  72  79 S10       30.04S
$$

ANZ081-ANZ082-ANZ150-NHZ014-MEZ023>029-071400-
COASTAL MARINE OBSERVATIONS

STATION/POSITION TIME  TEMP    WIND        PRES    WAVE
                       AIR SEA DIR/SP/G            HT/PER
                 (UTC) (F)     (DEG/KT/KT) (MB)    (FT/S)
MOUNT DESERT ROC 1300   61     170/ 11/ 11 1020.8F
MATINICUS ROCK   1300   58     190/ 14/ 15 1019.8F
ISLE OF SHOALS   1300   66     190/ 10/ 10 1018.9F
JEFFREYS LEDGE   1203      62                N/A     2/ 7
CASHES LEDGE BUO 1250   62 59              1020.2F   2/ 8
GEORGES BANK BUO 1150   62 59  120/  4/  4 1022.5    2/ 8
$$

.............KEY..............
   WCI - WIND CHILL
   TC  - TEMPERATURE IN CELSIUS
   VSB - VISIBILITY IN MILES
   HX  - HEAT INDEX
   FAIR- INDICATES FEW OR NO CLOUDS BELOW 12,000 FT, WITH NO
         SIGNIFICANT WEATHER AND/OR OBSTRUCTIONS TO VISIBILITY.





USA.gov is the U.S. government's official web portal to all federal, state and local government web resources and services.